Wind_Speed
70 70 65 61 64 65 63 67 62 66 63 61 61 59 56 57 57 52 54 51 49 50 49 47 48 47 40 36 30 27 24 23 23 23 21 18 18 17 13 13 13 11 9 10 11
70 68 67 64 60 62 59 61 64 64 60 57 57 61 54 52 55 55 53 51 49 45 44 46 48 48 38 34 30 26 25 22 21 21 22 21 18 17 16 14 15 10 11 11 12
73 72 68 66 64 62 58 57 58 57 58 60 57 58 56 55 51 50 49 47 45 43 42 44 48 44 38 35 30 26 25 24 22 20 20 21 20 18 17 20 15 13 12 12 12
75 73 72 67 67 67 62 60 56 56 61 57 59 57 56 55 54 51 49 48 44 43 44 46 44 41 37 34 30 27 26 25 24 23 23 21 21 20 18 20 21 15 14 14 14
80 75 75 74 70 66 66 63 62 60 57 57 55 55 56 54 53 51 50 48 47 48 48 48 45 40 37 32 29 28 27 27 26 26 25 23 23 20 20 22 21 19 17 17 16
68 80 76 76 76 71 70 65 64 62 61 59 57 56 55 57 54 52 50 49 49 49 50 49 47 41 39 33 31 31 30 30 27 28 28 24 24 20 25 22 22 23 23 19 19
66 76 79 77 77 77 72 70 68 65 63 63 61 60 60 57 55 54 55 52 51 50 52 50 48 42 37 34 34 32 31 31 29 30 31 27 27 23 25 24 24 24 25 24 22
73 69 80 78 77 79 79 77 73 70 67 66 65 63 62 60 59 58 56 55 55 53 51 50 48 44 40 39 38 36 33 32 32 33 31 28 29 26 26 27 26 26 26 26 26
82 75 71 80 79 80 80 79 78 75 73 71 69 65 64 62 62 61 55 55 56 55 52 50 48 46 44 41 40 39 36 37 36 34 32 31 34 25 28 29 29 29 28 27 29
90 84 78 74 77 82 81 83 82 80 77 76 72 70 67 68 64 62 62 59 57 56 52 51 49 49 50 45 41 40 40 40 40 38 33 34 35 30 27 32 34 33 30 30 32
96 90 85 81 78 79 82 84 85 84 81 80 76 74 73 70 66 66 62 61 59 56 54 54 51 54 54 45 46 43 42 44 47 41 34 34 34 33 29 34 35 37 36 35 34
98 99 94 88 82 78 84 87 85 86 86 82 79 78 76 74 71 69 67 66 61 58 57 55 54 61 54 50 49 48 45 47 49 45 35 39 34 37 34 36 39 39 40 39 36
99 101 99 93 90 84 79 85 88 88 87 86 83 79 79 78 76 73 70 67 64 62 62 61 61 62 58 58 56 53 48 50 48 49 41 40 31 38 41 38 42 44 41 40 40
101 104 103 102 95 93 86 87 84 87 91 86 86 85 81 81 78 77 75 73 71 68 69 64 64 68 66 59 61 56 59 56 56 53 48 40 26 39 44 42 46 53 49 43 40
108 103 108 106 99 97 95 92 90 90 89 90 89 82 84 84 77 81 80 79 77 77 77 69 71 69 69 70 71 63 66 64 62 61 55 39 34 33 43 43 51 58 58 46 43
102 110 106 107 106 101 100 97 95 99 93 84 87 87 87 87 83 85 85 83 81 82 80 76 75 75 73 74 76 73 70 71 70 66 52 45 53 30 38 44 51 62 61 53 44
97 101 110 109 108 106 107 104 102 107 97 93 92 91 91 91 89 89 89 86 86 85 78 81 79 78 78 77 78 77 77 77 74 67 55 55 57 38 41 45 55 62 64 61 53
103 100 100 112 111 109 110 114 117 108 103 98 93 96 96 94 91 91 90 90 88 85 83 86 82 82 82 83 84 83 79 77 75 71 64 63 58 43 50 47 53 61 61 60 56
107 107 102 102 107 114 117 121 121 115 109 104 97 101 100 102 101 99 94 90 87 86 86 87 87 86 86 86 87 82 80 76 80 74 71 67 66 50 52 55 55 54 63 59 56
111 110 103 107 108 106 117 122 113 118 114 112 109 106 102 102 101 101 99 94 91 91 93 94 90 87 84 86 84 83 81 82 82 80 80 72 68 61 52 54 56 62 60 60 59
121 118 112 113 114 116 115 116 115 112 117 117 116 115 108 108 107 104 100 95 98 97 100 100 97 91 91 88 87 90 88 87 88 88 85 77 67 63 57 55 57 63 66 63 62
130 127 126 124 120 115 113 106 107 119 116 120 121 119 117 114 113 109 104 98 100 100 102 102 104 98 92 91 91 92 88 89 91 88 87 85 69 64 65 63 61 62 65 68 66
133 133 131 133 135 127 116 113 112 112 121 127 124 121 118 120 120 114 108 101 106 105 102 103 107 103 100 93 88 87 86 90 95 96 92 93 69 64 72 70 67 67 68 67 69
140 142 140 137 136 133 130 124 121 115 118 122 125 127 124 122 123 116 112 109 110 107 108 110 114 108 101 97 99 98 96 97 98 99 83 91 74 71 69 71 70 69 70 69 71
128 128 133 138 139 138 137 133 133 130 124 122 123 124 126 131 126 122 113 114 115 112 114 117 117 112 108 108 106 103 102 103 103 93 100 80 87 64 69 69 73 75 78 78 76
115 122 130 133 135 137 140 136 134 130 130 128 128 122 124 126 125 124 123 124 121 117 117 123 121 119 113 109 111 112 112 108 101 98 101 89 92 71 78 82 81 80 83 80 79
111 115 121 125 132 137 131 132 134 136 139 137 134 130 129 128 125 123 124 123 124 124 126 128 126 125 124 115 119 121 108 104 106 104 103 103 89 84 83 84 85 87 85 82 84
Wind_Direction
218 216 217 218 220 220 222 223 225 227 231 233 237 241 245 249 251 248 254 258 261 263 267 273 281 285 280 281 279 281 283 288 291 293 292 291 297 299 294 286 277 275 268 263 269
219 218 217 217 219 223 224 222 224 226 227 230 232 239 241 241 246 247 249 254 257 261 266 275 280 281 277 279 279 281 284 284 286 290 294 295 294 296 297 284 281 280 274 269 269
222 221 218 217 218 220 220 224 223 223 227 229 233 237 235 240 243 243 249 250 254 258 264 272 277 274 276 278 277 280 284 285 286 285 282 286 291 293 292 289 280 282 273 270 266
224 223 222 218 217 218 220 223 225 226 228 228 230 231 236 236 241 244 244 248 251 257 262 267 270 269 275 274 276 280 283 285 286 289 287 285 286 290 292 286 288 280 278 270 267
222 225 225 223 220 220 221 223 223 225 224 225 226 229 233 235 237 239 243 247 252 256 259 263 265 266 273 272 273 277 280 282 286 288 283 283 285 291 286 282 285 282 271 270 273
226 224 224 226 223 222 221 222 225 226 226 227 227 229 232 234 236 239 243 247 251 254 258 260 263 264 270 268 271 276 278 280 284 285 283 282 281 286 280 281 280 280 278 273 268
220 225 226 224 227 224 224 224 225 226 226 229 229 231 232 233 237 239 244 247 249 251 256 258 262 264 265 268 271 273 276 278 279 280 281 284 282 280 278 278 274 275 279 281 275
211 222 225 228 225 226 227 226 227 227 227 229 231 232 234 237 238 240 241 243 246 249 252 256 259 262 263 270 271 274 275 273 272 274 278 281 281 281 279 279 278 273 272 275 276
215 214 225 227 228 227 227 228 228 228 229 230 232 233 234 237 237 237 238 241 244 247 250 253 257 261 262 264 267 272 273 271 270 270 273 276 279 277 279 279 277 275 275 274 274
217 215 213 226 229 229 227 227 228 229 229 231 232 233 235 235 237 237 239 239 242 248 250 253 256 259 260 259 268 267 268 269 268 269 271 274 277 277 277 278 279 279 277 274 271
219 217 217 215 226 228 230 229 228 229 230 232 233 233 235 236 237 238 237 239 243 245 247 250 253 256 258 261 260 260 264 266 266 267 269 271 274 277 279 278 279 279 280 275 276
221 219 221 217 213 227 231 230 230 231 230 231 233 234 234 235 236 238 240 241 242 244 246 247 249 255 257 256 257 257 256 260 266 268 263 268 272 280 279 280 280 280 279 283 283
224 224 222 223 219 214 226 232 234 231 231 234 231 233 234 236 236 237 239 240 241 244 244 245 248 252 254 253 254 256 256 258 263 268 266 261 268 272 276 276 279 277 277 279 279
224 226 224 225 224 221 218 223 233 234 233 232 234 233 235 235 237 239 239 240 242 242 242 243 247 248 249 252 255 255 258 259 261 262 265 269 261 269 270 277 278 278 279 276 279
226 225 225 226 225 226 224 222 225 232 234 233 236 234 237 239 237 239 240 240 240 241 242 242 244 248 251 253 255 253 256 258 260 261 263 274 264 252 267 274 276 278 279 282 285
230 226 226 226 227 228 230 228 227 227 227 235 236 237 237 239 239 240 242 241 242 243 243 244 244 248 250 251 255 255 256 260 260 257 264 265 265 254 255 262 265 270 281 288 289
231 231 228 228 227 228 230 231 229 231 223 222 227 237 238 238 239 240 243 243 244 244 245 245 245 246 250 252 254 258 257 257 258 263 265 261 262 262 255 255 263 267 274 280 284
234 232 233 231 231 230 231 232 233 233 228 226 222 227 232 237 239 241 243 245 247 246 246 247 246 247 248 252 252 255 259 261 263 261 262 264 265 261 264 259 259 268 272 276 281
237 234 232 233 233 233 232 233 233 235 235 231 227 226 228 232 234 236 239 241 246 247 248 248 249 249 250 251 254 256 259 261 263 262 262 263 265 265 262 265 268 266 276 278 282
234 235 232 233 233 233 235 233 234 236 237 238 232 231 230 232 236 239 236 234 240 246 250 249 246 247 249 252 254 256 256 257 259 259 260 261 263 269 264 266 270 274 274 278 280
233 234 234 234 234 235 237 237 232 234 237 239 239 237 233 234 235 237 240 240 241 242 246 246 247 244 247 249 252 253 254 254 256 257 260 261 262 266 270 269 270 274 276 275 276
234 236 235 236 238 239 239 241 239 235 237 238 241 241 240 239 237 238 239 242 245 245 248 249 249 248 249 250 250 253 255 257 259 260 259 264 269 268 274 277 272 267 269 273 278
234 237 238 240 242 243 242 241 239 239 240 238 240 240 242 242 239 238 239 241 245 247 249 250 252 251 247 249 253 255 256 257 258 259 262 267 271 269 273 272 271 269 273 273 275
238 237 239 240 244 243 242 241 242 241 241 242 242 243 242 242 244 241 241 242 244 245 248 249 250 251 252 251 252 253 254 255 258 261 268 268 271 271 272 271 270 270 270 271 272
236 237 239 240 241 242 243 244 243 243 243 243 244 247 247 243 245 245 241 242 244 245 247 249 251 252 252 252 252 252 254 257 260 265 264 265 268 269 269 266 266 269 272 273 275
237 237 237 237 241 242 241 244 244 245 246 245 245 245 247 249 248 248 249 246 245 245 247 249 249 251 250 254 256 256 257 258 261 263 265 265 266 268 263 266 270 269 269 273 275
236 237 238 238 238 241 242 243 242 243 245 246 246 245 245 247 249 249 249 250 251 248 248 250 252 253 252 252 254 254 258 261 261 263 267 268 270 265 267 264 263 268 270 268 270
Height
10688 10695 10702 10710 10717 10724 10731 10738 10743 10750 10757 10761 10767 10771 10775 10778 10782 10785 10787 10788 10790 10791 10793 10795 10797 10799 10800 10800 10799 10798 10799 10798 10797 10796 10796 10797 10797 10796 10797 10797 10797 10798 10799 10799 10800
10679 10684 10691 10700 10709 10717 10723 10729 10736 10742 10748 10752 10758 10763 10766 10770 10774 10778 10780 10781 10783 10785 10787 10789 10792 10795 10796 10796 10794 10794 10795 10795 10794 10794 10792 10791 10793 10793 10794 10794 10794 10796 10796 10797 10797
10670 10677 10682 10688 10698 10706 10714 10721 10727 10732 10737 10743 10749 10754 10758 10762 10766 10769 10772 10775 10777 10779 10781 10783 10787 10790 10791 10791 10790 10789 10790 10790 10790 10791 10790 10789 10788 10790 10791 10789 10792 10793 10794 10795 10795
10659 10667 10675 10680 10687 10695 10703 10709 10716 10722 10728 10734 10739 10745 10749 10753 10758 10762 10765 10768 10771 10773 10776 10778 10782 10784 10785 10785 10785 10785 10784 10785 10786 10786 10785 10785 10785 10787 10788 10787 10787 10790 10790 10791 10792
10648 10656 10664 10671 10678 10686 10693 10699 10706 10713 10719 10725 10730 10735 10740 10745 10750 10754 10758 10761 10764 10767 10770 10773 10775 10778 10779 10780 10780 10780 10780 10780 10781 10781 10781 10781 10781 10783 10783 10783 10784 10785 10787 10787 10788
10635 10644 10652 10661 10669 10676 10683 10689 10697 10703 10709 10715 10721 10726 10731 10736 10742 10746 10750 10754 10757 10761 10764 10767 10769 10772 10773 10773 10774 10774 10775 10775 10777 10775 10775 10777 10777 10780 10777 10779 10780 10780 10781 10783 10784
10619 10632 10642 10649 10658 10665 10672 10680 10687 10693 10699 10706 10712 10717 10723 10728 10732 10738 10742 10746 10750 10754 10758 10760 10762 10765 10766 10766 10767 10768 10770 10771 10772 10771 10771 10772 10772 10774 10774 10774 10775 10775 10775 10776 10777
10602 10616 10629 10637 10646 10654 10662 10669 10676 10683 10688 10695 10702 10709 10714 10719 10724 10729 10733 10738 10743 10746 10750 10752 10754 10757 10759 10759 10759 10761 10763 10765 10765 10766 10767 10768 10767 10769 10768 10768 10769 10769 10770 10770 10771
10591 10597 10612 10624 10632 10641 10650 10659 10666 10672 10679 10685 10691 10698 10704 10710 10715 10720 10725 10729 10734 10738 10741 10745 10747 10748 10749 10750 10752 10754 10755 10755 10757 10761 10763 10763 10761 10766 10763 10762 10762 10762 10764 10764 10764
10577 10584 10590 10606 10618 10627 10636 10644 10651 10659 10666 10673 10680 10689 10694 10698 10704 10710 10715 10720 10724 10729 10734 10736 10739 10740 10737 10742 10746 10747 10747 10746 10747 10752 10757 10758 10756 10760 10761 10757 10756 10756 10758 10758 10757
10561 10571 10578 10584 10600 10611 10622 10629 10638 10646 10653 10660 10669 10677 10681 10688 10695 10700 10705 10710 10716 10721 10724 10727 10732 10727 10727 10737 10736 10737 10738 10737 10734 10744 10752 10752 10750 10753 10755 10751 10751 10750 10750 10750 10752
10546 10554 10564 10572 10578 10593 10605 10613 10620 10633 10639 10647 10656 10663 10669 10674 10682 10688 10694 10700 10705 10709 10714 10718 10722 10712 10721 10725 10726 10726 10728 10726 10727 10735 10745 10744 10748 10744 10746 10745 10743 10742 10742 10742 10745
10533 10544 10552 10561 10568 10569 10587 10598 10606 10615 10623 10633 10641 10650 10655 10661 10669 10676 10681 10688 10693 10698 10701 10706 10707 10705 10710 10711 10713 10715 10718 10716 10721 10721 10734 10738 10749 10740 10736 10738 10735 10732 10735 10736 10736
10517 10525 10536 10543 10555 10563 10566 10576 10589 10599 10607 10620 10625 10636 10643 10648 10659 10665 10670 10675 10680 10684 10685 10694 10696 10692 10694 10702 10699 10706 10704 10707 10708 10712 10720 10732 10747 10737 10729 10730 10726 10719 10723 10728 10730
10498 10507 10519 10529 10543 10548 10554 10561 10568 10581 10584 10602 10613 10628 10631 10635 10652 10647 10653 10657 10666 10666 10668 10684 10681 10684 10687 10687 10684 10695 10690 10693 10697 10699 10711 10729 10729 10737 10724 10723 10713 10706 10707 10719 10723
10480 10490 10499 10512 10524 10533 10540 10548 10554 10551 10561 10594 10604 10609 10615 10621 10632 10632 10633 10641 10649 10651 10658 10667 10671 10671 10675 10673 10668 10676 10680 10680 10681 10686 10710 10717 10707 10732 10724 10717 10707 10694 10697 10705 10714
10464 10472 10482 10494 10507 10513 10520 10528 10531 10525 10554 10568 10582 10591 10593 10600 10609 10614 10616 10623 10630 10634 10649 10649 10655 10658 10658 10659 10658 10660 10661 10660 10666 10680 10701 10699 10699 10721 10716 10713 10701 10693 10690 10696 10701
10446 10454 10463 10475 10485 10492 10496 10502 10501 10520 10536 10551 10562 10567 10572 10578 10589 10597 10601 10607 10617 10625 10632 10631 10639 10642 10646 10644 10641 10641 10646 10652 10656 10666 10680 10685 10696 10710 10701 10701 10697 10687 10684 10685 10689
10427 10436 10447 10452 10460 10466 10469 10472 10492 10512 10519 10535 10547 10545 10553 10558 10563 10574 10583 10593 10599 10606 10608 10612 10620 10627 10627 10628 10626 10637 10639 10640 10634 10650 10659 10674 10680 10694 10692 10686 10685 10686 10673 10675 10678
10405 10417 10429 10424 10434 10437 10436 10456 10487 10499 10507 10510 10524 10530 10543 10547 10551 10558 10564 10580 10584 10587 10586 10588 10598 10609 10613 10613 10618 10622 10624 10622 10623 10627 10634 10658 10667 10675 10678 10675 10675 10667 10670 10665 10664
10381 10395 10403 10400 10408 10409 10420 10447 10478 10483 10485 10485 10499 10506 10527 10531 10536 10543 10554 10567 10569 10569 10562 10566 10573 10592 10593 10602 10603 10598 10605 10607 10607 10611 10618 10635 10655 10660 10664 10665 10665 10656 10650 10653 10655
10358 10371 10376 10375 10379 10395 10413 10444 10452 10462 10460 10464 10474 10486 10500 10513 10517 10523 10542 10554 10548 10552 10548 10552 10553 10571 10582 10584 10586 10588 10595 10596 10595 10600 10601 10612 10649 10650 10648 10652 10650 10645 10641 10636 10639
10335 10345 10349 10350 10355 10380 10405 10413 10421 10433 10441 10445 10448 10462 10473 10477 10486 10507 10523 10535 10529 10532 10536 10537 10527 10543 10557 10571 10581 10579 10579 10576 10572 10575 10595 10597 10639 10637 10631 10629 10631 10629 10628 10629 10624
10306 10319 10322 10329 10341 10355 10372 10391 10390 10410 10411 10416 10431 10438 10448 10453 10464 10490 10506 10514 10508 10514 10511 10505 10504 10524 10542 10551 10550 10554 10558 10554 10551 10557 10602 10584 10617 10611 10613 10611 10611 10613 10612 10614 10613
10278 10293 10298 10302 10319 10327 10337 10360 10368 10376 10388 10396 10404 10414 10427 10434 10439 10452 10483 10486 10487 10493 10488 10482 10487 10503 10518 10520 10525 10532 10537 10533 10538 10570 10549 10594 10576 10610 10592 10590 10590 10590 10592 10591 10595
10256 10264 10270 10280 10286 10295 10306 10333 10346 10360 10366 10375 10377 10401 10399 10398 10416 10433 10442 10453 10460 10468 10460 10457 10468 10474 10494 10501 10499 10502 10510 10524 10541 10547 10536 10564 10563 10594 10568 10569 10573 10569 10566 10573 10576
10226 10235 10239 10252 10258 10262 10288 10302 10317 10327 10328 10341 10353 10367 10370 10381 10394 10400 10405 10418 10428 10440 10441 10439 10446 10454 10464 10488 10468 10462 10508 10516 10512 10522 10527 10532 10564 10557 10555 10546 10548 10547 10550 10554 10551